• In Portugal
  • List of Countries
  • For 7 days
  • Water Temperature
  • Satellite Maps
  • Weather Map
  • Weather Widgets
  • user-avatar
    Login

    Hourly Weather Nashavar

    Today, 26 September, Tuesday

    Time Temperature Precipitation Wind Pressure Humidity
    00:00 +31°C° 0 mm 1 mps 727 mmHg 29%
    01:00 +30°C° 0 mm 1 mps 726 mmHg 30%
    02:00 +29°C° 0 mm 1 mps 726 mmHg 31%
    03:00 +29°C° 0 mm 1 mps 726 mmHg 30%
    04:00 +28°C° 0 mm 1 mps 726 mmHg 30%
    05:00 +28°C° 0 mm 1 mps 727 mmHg 29%
    06:00 +29°C° 0 mm 1 mps 727 mmHg 27%
    07:00 +30°C° 0 mm 1 mps 727 mmHg 24%
    08:00 +31°C° 0 mm 1 mps 728 mmHg 21%
    09:00 +32°C° 0 mm 2 mps 728 mmHg 18%
    10:00 +35°C° 0 mm 2 mps 728 mmHg 15%
    11:00 +36°C° 0 mm 2 mps 728 mmHg 12%
    12:00 +37°C° 0 mm 2 mps 728 mmHg 11%
    13:00 +37°C° 0 mm 1 mps 727 mmHg 10%
    14:00 +39°C° 0 mm 1 mps 727 mmHg 9%
    15:00 +39°C° 0 mm 1 mps 727 mmHg 10%
    16:00 +39°C° 0 mm 1 mps 727 mmHg 11%
    17:00 +37°C° 0 mm 1 mps 727 mmHg 11%
    18:00 +36°C° 0 mm 1 mps 727 mmHg 13%
    19:00 +34°C° 0 mm 1 mps 727 mmHg 15%
    20:00 +33°C° 0 mm 1 mps 727 mmHg 17%
    21:00 +32°C° 0 mm 1 mps 727 mmHg 17%
    22:00 +31°C° 0 mm 1 mps 727 mmHg 17%
    23:00 +31°C° 0 mm 1 mps 727 mmHg 17%

    Tomorrow, 27 September, Wednesday

    Time Temperature Precipitation Wind Pressure Humidity
    00:00 +30°C° 0 mm 1 mps 727 mmHg 18%
    01:00 +30°C° 0 mm 1 mps 727 mmHg 19%
    02:00 +29°C° 0 mm 1 mps 727 mmHg 20%
    03:00 +29°C° 0 mm 1 mps 727 mmHg 20%
    04:00 +28°C° 0 mm 1 mps 727 mmHg 21%
    05:00 +28°C° 0 mm 1 mps 727 mmHg 21%
    06:00 +29°C° 0 mm 1 mps 727 mmHg 20%
    07:00 +30°C° 0 mm 1 mps 728 mmHg 18%
    08:00 +31°C° 0 mm 1 mps 728 mmHg 17%
    09:00 +33°C° 0 mm 1 mps 728 mmHg 14%
    10:00 +35°C° 0 mm 2 mps 728 mmHg 12%
    11:00 +37°C° 0 mm 2 mps 728 mmHg 10%
    12:00 +38°C° 0 mm 2 mps 728 mmHg 9%
    13:00 +39°C° 0 mm 1 mps 727 mmHg 8%
    14:00 +40°C° 0 mm 1 mps 727 mmHg 8%
    15:00 +39°C° 0 mm 1 mps 727 mmHg 8%
    16:00 +39°C° 0 mm 1 mps 726 mmHg 9%
    17:00 +39°C° 0 mm 1 mps 726 mmHg 9%
    18:00 +36°C° 0 mm 1 mps 726 mmHg 11%
    19:00 +35°C° 0 mm 1 mps 727 mmHg 13%
    20:00 +31°C° 0 mm 0 mps 727 mmHg 15%
    21:00 +32°C° 0 mm 1 mps 727 mmHg 15%
    22:00 +31°C° 0 mm 1 mps 727 mmHg 15%
    23:00 +31°C° 0 mm 1 mps 727 mmHg 15%

    Day after tomorrow, 28 September, Thursday

    Time Temperature Precipitation Wind Pressure Humidity
    00:00 +30°C° 0 mm 1 mps 727 mmHg 16%
    01:00 +30°C° 0 mm 1 mps 726 mmHg 16%
    02:00 +29°C° 0 mm 1 mps 726 mmHg 17%
    03:00 +29°C° 0 mm 1 mps 726 mmHg 17%
    04:00 +28°C° 0 mm 1 mps 726 mmHg 17%
    05:00 +28°C° 0 mm 1 mps 726 mmHg 17%
    06:00 +29°C° 0 mm 1 mps 726 mmHg 16%
    07:00 +30°C° 0 mm 1 mps 727 mmHg 15%
    08:00 +31°C° 0 mm 1 mps 727 mmHg 14%
    09:00 +33°C° 0 mm 1 mps 727 mmHg 12%
    10:00 +35°C° 0 mm 2 mps 727 mmHg 11%
    11:00 +37°C° 0 mm 2 mps 727 mmHg 9%
    12:00 +38°C° 0 mm 2 mps 727 mmHg 8%
    13:00 +39°C° 0 mm 1 mps 726 mmHg 8%
    14:00 +40°C° 0 mm 1 mps 726 mmHg 7%
    15:00 +40°C° 0 mm 1 mps 726 mmHg 8%
    16:00 +39°C° 0 mm 2 mps 725 mmHg 9%
    17:00 +39°C° 0 mm 2 mps 725 mmHg 9%
    18:00 +36°C° 0 mm 1 mps 725 mmHg 11%
    19:00 +35°C° 0 mm 1 mps 726 mmHg 13%
    20:00 +33°C° 0 mm 1 mps 726 mmHg 15%
    21:00 +32°C° 0 mm 1 mps 726 mmHg 15%
    22:00 +31°C° 0 mm 1 mps 726 mmHg 15%
    23:00 +31°C° 0 mm 1 mps 726 mmHg 16%

    29 September, Friday

    Time Temperature Precipitation Wind Pressure Humidity
    00:00 +30°C° 0 mm 1 mps 726 mmHg 16%
    01:00 +30°C° 0 mm 1 mps 726 mmHg 17%
    02:00 +29°C° 0 mm 1 mps 726 mmHg 18%
    03:00 +28°C° 0 mm 1 mps 726 mmHg 18%
    04:00 +28°C° 0 mm 1 mps 726 mmHg 18%
    05:00 +28°C° 0 mm 1 mps 726 mmHg 18%
    06:00 +29°C° 0 mm 1 mps 726 mmHg 17%
    07:00 +30°C° 0 mm 1 mps 726 mmHg 16%
    08:00 +31°C° 0 mm 1 mps 727 mmHg 14%
    09:00 +34°C° 0 mm 2 mps 727 mmHg 12%
    10:00 +35°C° 0 mm 2 mps 727 mmHg 11%
    11:00 +37°C° 0 mm 2 mps 727 mmHg 9%
    12:00 +38°C° 0 mm 2 mps 726 mmHg 8%
    13:00 +39°C° 0 mm 1 mps 726 mmHg 8%
    14:00 +39°C° 0 mm 1 mps 725 mmHg 7%
    15:00 +39°C° 0 mm 1 mps 725 mmHg 8%
    16:00 +39°C° 0 mm 2 mps 725 mmHg 9%
    17:00 +39°C° 0 mm 2 mps 725 mmHg 9%
    18:00 +36°C° 0 mm 1 mps 725 mmHg 11%
    19:00 +34°C° 0 mm 1 mps 726 mmHg 13%
    20:00 +32°C° 0 mm 1 mps 726 mmHg 15%
    21:00 +32°C° 0 mm 1 mps 726 mmHg 15%
    22:00 +31°C° 0 mm 1 mps 726 mmHg 15%
    23:00 +31°C° 0 mm 1 mps 727 mmHg 15%

    30 September, Saturday

    Time Temperature Precipitation Wind Pressure Humidity
    00:00 +30°C° 0 mm 1 mps 727 mmHg 16%
    01:00 +29°C° 0 mm 1 mps 727 mmHg 16%
    02:00 +29°C° 0 mm 1 mps 726 mmHg 17%
    03:00 +28°C° 0 mm 2 mps 727 mmHg 17%
    04:00 +28°C° 0 mm 2 mps 727 mmHg 17%
    05:00 +27°C° 0 mm 2 mps 727 mmHg 17%
    06:00 +28°C° 0 mm 2 mps 727 mmHg 16%
    07:00 +29°C° 0 mm 2 mps 728 mmHg 15%
    08:00 +30°C° 0 mm 2 mps 728 mmHg 14%
    09:00 +32°C° 0 mm 2 mps 728 mmHg 12%
    10:00 +35°C° 0 mm 2 mps 729 mmHg 10%
    11:00 +37°C° 0 mm 2 mps 729 mmHg 8%
    12:00 +38°C° 0 mm 2 mps 728 mmHg 8%
    13:00 +39°C° 0 mm 2 mps 727 mmHg 7%
    14:00 +39°C° 0 mm 1 mps 727 mmHg 7%
    15:00 +39°C° 0 mm 1 mps 727 mmHg 8%
    16:00 +39°C° 0 mm 1 mps 726 mmHg 8%
    17:00 +39°C° 0 mm 1 mps 726 mmHg 9%
    18:00 +36°C° 0 mm 1 mps 727 mmHg 11%
    19:00 +34°C° 0 mm 1 mps 727 mmHg 12%
    20:00 +30°C° 0 mm 0 mps 727 mmHg 14%
    21:00 +32°C° 0 mm 1 mps 727 mmHg 14%
    22:00 +31°C° 0 mm 1 mps 727 mmHg 14%
    23:00 +31°C° 0 mm 1 mps 727 mmHg 14%

    1 October, Sunday

    Time Temperature Precipitation Wind Pressure Humidity
    00:00 +30°C° 0 mm 1 mps 727 mmHg 14%
    01:00 +29°C° 0 mm 1 mps 726 mmHg 15%
    02:00 +29°C° 0 mm 1 mps 726 mmHg 16%
    03:00 +28°C° 0 mm 1 mps 726 mmHg 16%
    04:00 +28°C° 0 mm 1 mps 726 mmHg 16%
    05:00 +27°C° 0 mm 1 mps 726 mmHg 16%
    06:00 +28°C° 0 mm 1 mps 727 mmHg 15%
    07:00 +30°C° 0 mm 1 mps 727 mmHg 14%
    08:00 +31°C° 0 mm 1 mps 727 mmHg 13%
    09:00 +32°C° 0 mm 1 mps 727 mmHg 11%
    10:00 +35°C° 0 mm 2 mps 727 mmHg 9%
    11:00 +37°C° 0 mm 2 mps 727 mmHg 7%
    12:00 +38°C° 0 mm 2 mps 727 mmHg 7%
    13:00 +39°C° 0 mm 1 mps 726 mmHg 6%
    14:00 +40°C° 0 mm 1 mps 726 mmHg 6%
    15:00 +39°C° 0 mm 1 mps 726 mmHg 7%
    16:00 +39°C° 0 mm 1 mps 726 mmHg 7%
    17:00 +39°C° 0 mm 1 mps 726 mmHg 8%
    18:00 +36°C° 0 mm 1 mps 726 mmHg 10%
    19:00 +34°C° 0 mm 1 mps 726 mmHg 12%
    20:00 +32°C° 0 mm 1 mps 726 mmHg 13%
    21:00 +31°C° 0 mm 1 mps 726 mmHg 13%
    22:00 +31°C° 0 mm 1 mps 726 mmHg 13%
    23:00 +30°C° 0 mm 1 mps 726 mmHg 13%
    Show more